0 HST 1 20580U 90037B 25296.15950932 .00010004 00000-0 35753-3 0 9993 2 20580 28.4687 256.5162 0002150 36.1884 323.8856 15.27089889752250 0 ISS (ZARYA) 1 25544U 98067A 25295.78201116 .00014649 00000-0 27011-3 0 9997 2 25544 51.6347 34.7593 0004450 325.2388 34.8309 15.49358610534958 0 CXO 1 25867U 99040B 25296.37207216 .00000767 00000-0 00000-0 0 9992 2 25867 52.0490 124.4132 8221787 310.6302 0.1667 0.37807083 16426